星链-2674 (STARLINK-2674 )

导读 | 星芒AI

STARLINK-2674 是 SpaceX Starlink 项目中的一颗低轨通信卫星,属于第26组发射批次。该卫星于2023年发射,运行在约550公里高度的近地轨道,旨在为全球用户提供高速互联网服务。它采用先进的星间激光通信技术,提升网络效率与覆盖范围。作为星链计划的一部分,STARLINK-2674 有助于构建全球卫星互联网网络,特别是在偏远和网络基础设施薄弱地区发挥重要作用。

基本信息
目录编号:
48354
目录名称:
STARLINK-2674
国际标识:
2021-038B
轨道中心:
EARTH
卫星名称:
星链-2674
卫星全名:
星链-2674 (STARLINK-2674 )
卫星状态:
在轨 (已飞行1640 天)
发射日期:
2021-05-04 UTC
国别 :
美国 (US)
星等 :
--
轨道信息
数据来源 国际轨道数据
星历时间: 2025-10-30T10:15:35+0800
13小时前
查看轨道信息
半长轴: 6925.363km
偏心率: 0.0001356
轨道倾角: 53.054°
近地点辐角 77.890°
升交点赤经 227.887°
平近点角 282.224°
近地点: 546.288km
远地点: 548.168km
周期: 95.592分钟
每日圈数: 15.063954
详细信息
固有亮度:
5
最大亮度:
2.5
卫星平台:
Starlink V1.0
覆盖范围:
全球
运营商:
太空探索技术公司
运营商所在国:
美国
制造商(研发单位):
太空探索技术公司
制造商所在国:
美国
使用方式:
暂无
卫星简介
星链(Starlink)计划是由太空探索技术公司(SpaceX)提出的一个巨型低轨卫星互联网星座项目,计划在2019年至2024年间在太空搭建由约1.2万颗卫星组成的“星链”网络,其中1584颗将部署在地球上空550千米处的近地轨道,并从2020年开始工作。该卫星仍在工作。
2D轨道图
3D轨道图
轨道高度分析图
轨道倾角分析图
轨道综合分析图
查看轨道综合分析图